owner,sensor,date,latitude,longitude,vertical_datum,sea_water_practical_salinity,qcFlag 
TABS,ioos:station:wmo:42048:1,2011-04-01T00:00:00Z,27.9396,-96.8429,2.0,30.0688,11111222 
TABS,ioos:station:wmo:42048:1,2011-04-01T00:30:00Z,27.9396,-96.8429,2.0,30.069,11111222 
TABS,ioos:station:wmo:42048:1,2011-04-01T01:00:00Z,27.9396,-96.8429,2.0,30.0705,11111222 
TABS,ioos:station:wmo:42048:1,2011-04-01T01:30:00Z,27.9396,-96.8429,2.0,30.073,11111222 
TABS,ioos:station:wmo:42048:1,2011-04-01T02:00:00Z,27.9396,-96.8429,2.0,30.0736,11111222 
TABS,ioos:station:wmo:42048:1,2011-04-01T02:30:00Z,27.9396,-96.8429,2.0,30.0728,11111222 
TABS,ioos:station:wmo:42048:1,2011-04-01T03:00:00Z,27.9396,-96.8429,2.0,30.0713,11111222 
TABS,ioos:station:wmo:42048:1,2011-04-01T03:30:00Z,27.9396,-96.8429,2.0,30.0755,11111222 
TABS,ioos:station:wmo:42048:1,2011-04-01T04:00:00Z,27.9396,-96.8429,2.0,30.0764,11111222 
TABS,ioos:station:wmo:42048:1,2011-04-01T04:30:00Z,27.9396,-96.8429,2.0,30.0715,11111222 
TABS,ioos:station:wmo:42048:1,2011-04-01T05:00:00Z,27.9396,-96.8429,2.0,30.0694,11111222 
TABS,ioos:station:wmo:42048:1,2011-04-01T05:30:00Z,27.9396,-96.8429,2.0,30.0658,11111222 
TABS,ioos:station:wmo:42048:1,2011-04-01T06:00:00Z,27.9396,-96.8429,2.0,30.0651,11111222 
TABS,ioos:station:wmo:42048:1,2011-04-01T06:30:00Z,27.9396,-96.8429,2.0,30.0659,11111222 
TABS,ioos:station:wmo:42048:1,2011-04-01T07:00:00Z,27.9396,-96.8429,2.0,30.0672,11111222 
TABS,ioos:station:wmo:42048:1,2011-04-01T07:30:00Z,27.9396,-96.8429,2.0,30.0712,11111222 
TABS,ioos:station:wmo:42048:1,2011-04-01T08:00:00Z,27.9396,-96.8429,2.0,30.0743,11111222 
TABS,ioos:station:wmo:42048:1,2011-04-01T08:30:00Z,27.9396,-96.8429,2.0,30.0795,11111222 
TABS,ioos:station:wmo:42048:1,2011-04-01T09:00:00Z,27.9396,-96.8429,2.0,30.082,11111222 
TABS,ioos:station:wmo:42048:1,2011-04-01T09:30:00Z,27.9396,-96.8429,2.0,30.0832,11111222 
TABS,ioos:station:wmo:42048:1,2011-04-01T10:00:00Z,27.9396,-96.8429,2.0,30.0853,11111222 
TABS,ioos:station:wmo:42048:1,2011-04-01T10:30:00Z,27.9396,-96.8429,2.0,30.0884,11111222 
TABS,ioos:station:wmo:42048:1,2011-04-01T11:00:00Z,27.9396,-96.8429,2.0,30.0906,11111222 
TABS,ioos:station:wmo:42048:1,2011-04-01T11:30:00Z,27.9396,-96.8429,2.0,30.0926,11111222 
TABS,ioos:station:wmo:42048:1,2011-04-01T12:00:00Z,27.9396,-96.8429,2.0,30.0991,11111222 
TABS,ioos:station:wmo:42048:1,2011-04-01T12:30:00Z,27.9396,-96.8429,2.0,30.1058,11111222 
TABS,ioos:station:wmo:42048:1,2011-04-01T13:00:00Z,27.9396,-96.8429,2.0,30.1205,11111222 
TABS,ioos:station:wmo:42048:1,2011-04-01T13:30:00Z,27.9396,-96.8429,2.0,30.1252,11111222 
TABS,ioos:station:wmo:42048:1,2011-04-01T14:00:00Z,27.9396,-96.8429,2.0,30.1355,11111222 
TABS,ioos:station:wmo:42048:1,2011-04-01T14:30:00Z,27.9396,-96.8429,2.0,30.1386,11111222 
TABS,ioos:station:wmo:42048:1,2011-04-01T15:00:00Z,27.9396,-96.8429,2.0,30.1442,11111222 
TABS,ioos:station:wmo:42048:1,2011-04-01T15:30:00Z,27.9396,-96.8429,2.0,30.1459,11111222 
TABS,ioos:station:wmo:42048:1,2011-04-01T16:00:00Z,27.9396,-96.8429,2.0,30.1437,11111222 
TABS,ioos:station:wmo:42048:1,2011-04-01T16:30:00Z,27.9396,-96.8429,2.0,30.1371,11111222 
TABS,ioos:station:wmo:42048:1,2011-04-01T17:00:00Z,27.9396,-96.8429,2.0,30.1323,11111222 
TABS,ioos:station:wmo:42048:1,2011-04-01T17:30:00Z,27.9396,-96.8429,2.0,30.1273,11111222 
TABS,ioos:station:wmo:42048:1,2011-04-01T18:00:00Z,27.9396,-96.8429,2.0,30.1274,11111222 
TABS,ioos:station:wmo:42048:1,2011-04-01T18:30:00Z,27.9396,-96.8429,2.0,30.1338,11111222 
TABS,ioos:station:wmo:42048:1,2011-04-01T19:00:00Z,27.9396,-96.8429,2.0,30.1322,11111222 
TABS,ioos:station:wmo:42048:1,2011-04-01T19:30:00Z,27.9396,-96.8429,2.0,30.1366,11111222 
TABS,ioos:station:wmo:42048:1,2011-04-01T20:00:00Z,27.9396,-96.8429,2.0,30.1408,11111222 
TABS,ioos:station:wmo:42048:1,2011-04-01T20:30:00Z,27.9396,-96.8429,2.0,30.143,11111222 
TABS,ioos:station:wmo:42048:1,2011-04-01T21:00:00Z,27.9396,-96.8429,2.0,30.1541,11111222 
TABS,ioos:station:wmo:42048:1,2011-04-01T21:30:00Z,27.9396,-96.8429,2.0,30.1785,11111222 
TABS,ioos:station:wmo:42048:1,2011-04-01T22:00:00Z,27.9396,-96.8429,2.0,30.1659,11111222 
TABS,ioos:station:wmo:42048:1,2011-04-01T22:30:00Z,27.9396,-96.8429,2.0,30.1764,11111222 
TABS,ioos:station:wmo:42048:1,2011-04-01T23:00:00Z,27.9396,-96.8429,2.0,30.1958,11111222 
TABS,ioos:station:wmo:42048:1,2011-04-01T23:30:00Z,27.9396,-96.8429,2.0,30.1779,11111222 
TABS,ioos:station:wmo:42048:1,2011-04-02T00:00:00Z,27.9396,-96.8429,2.0,30.2041,11111222 
TABS,ioos:station:wmo:42048:1,2011-04-02T00:30:00Z,27.9396,-96.8429,2.0,30.2063,11111222 
TABS,ioos:station:wmo:42048:1,2011-04-02T01:00:00Z,27.9396,-96.8429,2.0,30.2004,11111222 
TABS,ioos:station:wmo:42048:1,2011-04-02T01:30:00Z,27.9396,-96.8429,2.0,30.194,11111222 
TABS,ioos:station:wmo:42048:1,2011-04-02T02:00:00Z,27.9396,-96.8429,2.0,30.1988,11111222 
TABS,ioos:station:wmo:42048:1,2011-04-02T02:30:00Z,27.9396,-96.8429,2.0,30.2177,11111222 
TABS,ioos:station:wmo:42048:1,2011-04-02T03:00:00Z,27.9396,-96.8429,2.0,30.2,11111222 
TABS,ioos:station:wmo:42048:1,2011-04-02T03:30:00Z,27.9396,-96.8429,2.0,30.217,11111222 
TABS,ioos:station:wmo:42048:1,2011-04-02T04:00:00Z,27.9396,-96.8429,2.0,30.2325,11111222 
TABS,ioos:station:wmo:42048:1,2011-04-02T04:30:00Z,27.9396,-96.8429,2.0,30.2237,11111222 
TABS,ioos:station:wmo:42048:1,2011-04-02T05:00:00Z,27.9396,-96.8429,2.0,30.2206,11111222 
TABS,ioos:station:wmo:42048:1,2011-04-02T05:30:00Z,27.9396,-96.8429,2.0,30.2254,11111222 
TABS,ioos:station:wmo:42048:1,2011-04-02T06:00:00Z,27.9396,-96.8429,2.0,30.2282,11111222 
TABS,ioos:station:wmo:42048:1,2011-04-02T06:30:00Z,27.9396,-96.8429,2.0,30.2387,11111222 
TABS,ioos:station:wmo:42048:1,2011-04-02T07:00:00Z,27.9396,-96.8429,2.0,30.2388,11111222 
TABS,ioos:station:wmo:42048:1,2011-04-02T07:30:00Z,27.9396,-96.8429,2.0,30.2577,11111222 
TABS,ioos:station:wmo:42048:1,2011-04-02T08:00:00Z,27.9396,-96.8429,2.0,30.265,11111222 
TABS,ioos:station:wmo:42048:1,2011-04-02T08:30:00Z,27.9396,-96.8429,2.0,30.278,11111222 
TABS,ioos:station:wmo:42048:1,2011-04-02T09:00:00Z,27.9396,-96.8429,2.0,30.3027,11111222 
TABS,ioos:station:wmo:42048:1,2011-04-02T09:30:00Z,27.9396,-96.8429,2.0,30.2944,11111222 
TABS,ioos:station:wmo:42048:1,2011-04-02T10:00:00Z,27.9396,-96.8429,2.0,30.3367,11111222 
TABS,ioos:station:wmo:42048:1,2011-04-02T10:30:00Z,27.9396,-96.8429,2.0,30.3228,11111222 
TABS,ioos:station:wmo:42048:1,2011-04-02T11:00:00Z,27.9396,-96.8429,2.0,30.3288,11111222 
TABS,ioos:station:wmo:42048:1,2011-04-02T11:30:00Z,27.9396,-96.8429,2.0,30.3311,11111222 
TABS,ioos:station:wmo:42048:1,2011-04-02T12:00:00Z,27.9396,-96.8429,2.0,30.347,11111222 
TABS,ioos:station:wmo:42048:1,2011-04-02T12:30:00Z,27.9396,-96.8429,2.0,30.3485,11111222 
TABS,ioos:station:wmo:42048:1,2011-04-02T13:00:00Z,27.9396,-96.8429,2.0,30.3643,11111222 
TABS,ioos:station:wmo:42048:1,2011-04-02T13:30:00Z,27.9396,-96.8429,2.0,30.3847,11111222 
TABS,ioos:station:wmo:42048:1,2011-04-02T14:00:00Z,27.9396,-96.8429,2.0,30.3943,11111222 
TABS,ioos:station:wmo:42048:1,2011-04-02T14:30:00Z,27.9396,-96.8429,2.0,30.393,11111222 
TABS,ioos:station:wmo:42048:1,2011-04-02T15:00:00Z,27.9396,-96.8429,2.0,30.3946,11111222 
TABS,ioos:station:wmo:42048:1,2011-04-02T15:30:00Z,27.9396,-96.8429,2.0,30.4153,11111222 
TABS,ioos:station:wmo:42048:1,2011-04-02T16:00:00Z,27.9396,-96.8429,2.0,30.4161,11111222 
TABS,ioos:station:wmo:42048:1,2011-04-02T16:30:00Z,27.9396,-96.8429,2.0,30.4468,11111222 
TABS,ioos:station:wmo:42048:1,2011-04-02T17:00:00Z,27.9396,-96.8429,2.0,30.4564,11111222 
TABS,ioos:station:wmo:42048:1,2011-04-02T17:30:00Z,27.9396,-96.8429,2.0,30.4588,11111222 
TABS,ioos:station:wmo:42048:1,2011-04-02T18:00:00Z,27.9396,-96.8429,2.0,30.4995,11111222 
TABS,ioos:station:wmo:42048:1,2011-04-02T18:30:00Z,27.9396,-96.8429,2.0,30.4958,11111222 
TABS,ioos:station:wmo:42048:1,2011-04-02T19:00:00Z,27.9396,-96.8429,2.0,30.4999,11111222 
TABS,ioos:station:wmo:42048:1,2011-04-02T19:30:00Z,27.9396,-96.8429,2.0,30.4981,11111222 
TABS,ioos:station:wmo:42048:1,2011-04-02T20:00:00Z,27.9396,-96.8429,2.0,30.497,11111222 
TABS,ioos:station:wmo:42048:1,2011-04-02T20:30:00Z,27.9396,-96.8429,2.0,30.5019,11111222 
TABS,ioos:station:wmo:42048:1,2011-04-02T21:00:00Z,27.9396,-96.8429,2.0,30.4901,11111222 
TABS,ioos:station:wmo:42048:1,2011-04-02T21:30:00Z,27.9396,-96.8429,2.0,30.466,11111222 
TABS,ioos:station:wmo:42048:1,2011-04-02T22:00:00Z,27.9396,-96.8429,2.0,30.468,11111222 
TABS,ioos:station:wmo:42048:1,2011-04-02T22:30:00Z,27.9396,-96.8429,2.0,30.463,11111222 
TABS,ioos:station:wmo:42048:1,2011-04-02T23:00:00Z,27.9396,-96.8429,2.0,30.4753,11111222 
TABS,ioos:station:wmo:42048:1,2011-04-02T23:30:00Z,27.9396,-96.8429,2.0,30.4105,11111222 
TABS,ioos:station:wmo:42048:1,2011-04-03T00:00:00Z,27.9396,-96.8429,2.0,30.4498,11111222 
TABS,ioos:station:wmo:42048:1,2011-04-03T00:30:00Z,27.9396,-96.8429,2.0,30.4488,11111222 
TABS,ioos:station:wmo:42048:1,2011-04-03T01:00:00Z,27.9396,-96.8429,2.0,30.425,11111222 
TABS,ioos:station:wmo:42048:1,2011-04-03T01:30:00Z,27.9396,-96.8429,2.0,30.4495,11111222 
TABS,ioos:station:wmo:42048:1,2011-04-03T02:00:00Z,27.9396,-96.8429,2.0,30.4173,11111222 
TABS,ioos:station:wmo:42048:1,2011-04-03T02:30:00Z,27.9396,-96.8429,2.0,30.436,11111222 
TABS,ioos:station:wmo:42048:1,2011-04-03T03:00:00Z,27.9396,-96.8429,2.0,30.4168,11111222 
TABS,ioos:station:wmo:42048:1,2011-04-03T03:30:00Z,27.9396,-96.8429,2.0,30.4223,11111222 
TABS,ioos:station:wmo:42048:1,2011-04-03T04:00:00Z,27.9396,-96.8429,2.0,30.4307,11111222 
TABS,ioos:station:wmo:42048:1,2011-04-03T04:30:00Z,27.9396,-96.8429,2.0,30.4041,11111222 
TABS,ioos:station:wmo:42048:1,2011-04-03T05:00:00Z,27.9396,-96.8429,2.0,30.4198,11111222 
TABS,ioos:station:wmo:42048:1,2011-04-03T05:30:00Z,27.9396,-96.8429,2.0,30.4287,11111222 
TABS,ioos:station:wmo:42048:1,2011-04-03T06:00:00Z,27.9396,-96.8429,2.0,30.4336,11111222 
TABS,ioos:station:wmo:42048:1,2011-04-03T06:30:00Z,27.9396,-96.8429,2.0,30.4396,11111222 
TABS,ioos:station:wmo:42048:1,2011-04-03T07:00:00Z,27.9396,-96.8429,2.0,30.4424,11111222 
TABS,ioos:station:wmo:42048:1,2011-04-03T07:30:00Z,27.9396,-96.8429,2.0,30.4478,11111222 
TABS,ioos:station:wmo:42048:1,2011-04-03T08:00:00Z,27.9396,-96.8429,2.0,30.4348,11111222 
TABS,ioos:station:wmo:42048:1,2011-04-03T08:30:00Z,27.9396,-96.8429,2.0,30.4431,11111222 
TABS,ioos:station:wmo:42048:1,2011-04-03T09:00:00Z,27.9396,-96.8429,2.0,30.4494,11111222 
TABS,ioos:station:wmo:42048:1,2011-04-03T09:30:00Z,27.9396,-96.8429,2.0,30.446,11111222 
TABS,ioos:station:wmo:42048:1,2011-04-03T10:00:00Z,27.9396,-96.8429,2.0,30.4527,11111222 
TABS,ioos:station:wmo:42048:1,2011-04-03T10:30:00Z,27.9396,-96.8429,2.0,30.4592,11111222 
TABS,ioos:station:wmo:42048:1,2011-04-03T11:00:00Z,27.9396,-96.8429,2.0,30.4626,11111222 
TABS,ioos:station:wmo:42048:1,2011-04-03T11:30:00Z,27.9396,-96.8429,2.0,30.4687,11111222 
TABS,ioos:station:wmo:42048:1,2011-04-03T12:00:00Z,27.9396,-96.8429,2.0,30.4723,11111222 
TABS,ioos:station:wmo:42048:1,2011-04-03T12:30:00Z,27.9396,-96.8429,2.0,30.4752,11111222 
TABS,ioos:station:wmo:42048:1,2011-04-03T13:00:00Z,27.9396,-96.8429,2.0,30.4799,11111222 
TABS,ioos:station:wmo:42048:1,2011-04-03T16:00:00Z,27.9396,-96.8429,2.0,30.4996,11111222 
TABS,ioos:station:wmo:42048:1,2011-04-03T16:30:00Z,27.9396,-96.8429,2.0,30.501,11111222 
TABS,ioos:station:wmo:42048:1,2011-04-03T17:00:00Z,27.9396,-96.8429,2.0,30.5082,11111222 
TABS,ioos:station:wmo:42048:1,2011-04-03T17:30:00Z,27.9396,-96.8429,2.0,30.5102,11111222 
TABS,ioos:station:wmo:42048:1,2011-04-03T18:00:00Z,27.9396,-96.8429,2.0,30.5097,11111222 
TABS,ioos:station:wmo:42048:1,2011-04-03T18:30:00Z,27.9396,-96.8429,2.0,30.5092,11111222 
TABS,ioos:station:wmo:42048:1,2011-04-03T19:00:00Z,27.9396,-96.8429,2.0,30.5123,11111222 
TABS,ioos:station:wmo:42048:1,2011-04-03T19:30:00Z,27.9396,-96.8429,2.0,30.5132,11111222 
TABS,ioos:station:wmo:42048:1,2011-04-03T20:00:00Z,27.9396,-96.8429,2.0,30.5156,11111222 
TABS,ioos:station:wmo:42048:1,2011-04-03T20:30:00Z,27.9396,-96.8429,2.0,30.5167,11111222 
TABS,ioos:station:wmo:42048:1,2011-04-03T21:00:00Z,27.9396,-96.8429,2.0,30.5178,11111222 
TABS,ioos:station:wmo:42048:1,2011-04-03T21:30:00Z,27.9396,-96.8429,2.0,30.5203,11111222 
TABS,ioos:station:wmo:42048:1,2011-04-03T22:00:00Z,27.9396,-96.8429,2.0,30.5232,11111222 
TABS,ioos:station:wmo:42048:1,2011-04-03T22:30:00Z,27.9396,-96.8429,2.0,30.53,11111222 
TABS,ioos:station:wmo:42048:1,2011-04-03T23:00:00Z,27.9396,-96.8429,2.0,30.5347,11111222 
TABS,ioos:station:wmo:42048:1,2011-04-03T23:30:00Z,27.9396,-96.8429,2.0,30.5434,11111222 
TABS,ioos:station:wmo:42048:1,2011-04-04T00:00:00Z,27.9396,-96.8429,2.0,30.5477,11111222 
TABS,ioos:station:wmo:42048:1,2011-04-04T00:30:00Z,27.9396,-96.8429,2.0,30.5444,11111222 
TABS,ioos:station:wmo:42048:1,2011-04-04T01:00:00Z,27.9396,-96.8429,2.0,30.5419,11111222 
TABS,ioos:station:wmo:42048:1,2011-04-04T01:30:00Z,27.9396,-96.8429,2.0,30.5424,11111222 
TABS,ioos:station:wmo:42048:1,2011-04-04T02:00:00Z,27.9396,-96.8429,2.0,30.5407,11111222 
TABS,ioos:station:wmo:42048:1,2011-04-04T02:30:00Z,27.9396,-96.8429,2.0,30.5417,11111222 
TABS,ioos:station:wmo:42048:1,2011-04-04T03:00:00Z,27.9396,-96.8429,2.0,30.5424,11111222 
TABS,ioos:station:wmo:42048:1,2011-04-04T03:30:00Z,27.9396,-96.8429,2.0,30.5412,11111222 
TABS,ioos:station:wmo:42048:1,2011-04-04T04:00:00Z,27.9396,-96.8429,2.0,30.5381,11111222 
TABS,ioos:station:wmo:42048:1,2011-04-04T04:30:00Z,27.9396,-96.8429,2.0,30.5365,11111222 
TABS,ioos:station:wmo:42048:1,2011-04-04T05:00:00Z,27.9396,-96.8429,2.0,30.5423,11111222 
TABS,ioos:station:wmo:42048:1,2011-04-04T05:30:00Z,27.9396,-96.8429,2.0,30.5494,11111222 
TABS,ioos:station:wmo:42048:1,2011-04-04T06:00:00Z,27.9396,-96.8429,2.0,30.5495,11111222 
TABS,ioos:station:wmo:42048:1,2011-04-04T06:30:00Z,27.9396,-96.8429,2.0,30.5627,11111222 
TABS,ioos:station:wmo:42048:1,2011-04-04T07:00:00Z,27.9396,-96.8429,2.0,30.564,11111222 
TABS,ioos:station:wmo:42048:1,2011-04-04T07:30:00Z,27.9396,-96.8429,2.0,30.5659,11111222 
TABS,ioos:station:wmo:42048:1,2011-04-04T08:00:00Z,27.9396,-96.8429,2.0,30.5702,11111222 
TABS,ioos:station:wmo:42048:1,2011-04-04T08:30:00Z,27.9396,-96.8429,2.0,30.5707,11111222 
TABS,ioos:station:wmo:42048:1,2011-04-04T09:00:00Z,27.9396,-96.8429,2.0,30.6011,11111222 
TABS,ioos:station:wmo:42048:1,2011-04-04T09:30:00Z,27.9396,-96.8429,2.0,30.6186,11111222 
TABS,ioos:station:wmo:42048:1,2011-04-04T10:00:00Z,27.9396,-96.8429,2.0,30.6289,11111222 
TABS,ioos:station:wmo:42048:1,2011-04-04T10:30:00Z,27.9396,-96.8429,2.0,30.6355,11111222 
TABS,ioos:station:wmo:42048:1,2011-04-04T11:00:00Z,27.9396,-96.8429,2.0,30.6409,11111222 
TABS,ioos:station:wmo:42048:1,2011-04-04T11:30:00Z,27.9396,-96.8429,2.0,30.6416,11111222 
TABS,ioos:station:wmo:42048:1,2011-04-04T12:00:00Z,27.9396,-96.8429,2.0,30.6436,11111222 
TABS,ioos:station:wmo:42048:1,2011-04-04T12:30:00Z,27.9396,-96.8429,2.0,30.6404,11111222 
TABS,ioos:station:wmo:42048:1,2011-04-04T13:00:00Z,27.9396,-96.8429,2.0,30.65,11111222 
TABS,ioos:station:wmo:42048:1,2011-04-04T13:30:00Z,27.9396,-96.8429,2.0,30.6609,11111222 
TABS,ioos:station:wmo:42048:1,2011-04-04T14:00:00Z,27.9396,-96.8429,2.0,30.6572,11111222 
TABS,ioos:station:wmo:42048:1,2011-04-04T14:30:00Z,27.9396,-96.8429,2.0,30.6534,11111222 
TABS,ioos:station:wmo:42048:1,2011-04-04T15:00:00Z,27.9396,-96.8429,2.0,30.6547,11111222 
TABS,ioos:station:wmo:42048:1,2011-04-04T15:30:00Z,27.9396,-96.8429,2.0,30.657,11111222 
TABS,ioos:station:wmo:42048:1,2011-04-04T16:00:00Z,27.9396,-96.8429,2.0,30.6529,11111222 
TABS,ioos:station:wmo:42048:1,2011-04-04T16:30:00Z,27.9396,-96.8429,2.0,30.6583,11111222 
TABS,ioos:station:wmo:42048:1,2011-04-04T17:00:00Z,27.9396,-96.8429,2.0,30.6747,11111222 
TABS,ioos:station:wmo:42048:1,2011-04-04T17:30:00Z,27.9396,-96.8429,2.0,30.6866,11111222 
TABS,ioos:station:wmo:42048:1,2011-04-04T18:00:00Z,27.9396,-96.8429,2.0,30.7119,11111222 
TABS,ioos:station:wmo:42048:1,2011-04-04T18:30:00Z,27.9396,-96.8429,2.0,30.7014,11111222 
TABS,ioos:station:wmo:42048:1,2011-04-04T19:00:00Z,27.9396,-96.8429,2.0,30.7091,11111222 
TABS,ioos:station:wmo:42048:1,2011-04-04T19:30:00Z,27.9396,-96.8429,2.0,30.7183,11111222 
TABS,ioos:station:wmo:42048:1,2011-04-04T20:00:00Z,27.9396,-96.8429,2.0,30.7053,11111222 
TABS,ioos:station:wmo:42048:1,2011-04-04T20:30:00Z,27.9396,-96.8429,2.0,30.7066,11111222 
TABS,ioos:station:wmo:42048:1,2011-04-04T21:00:00Z,27.9396,-96.8429,2.0,30.6875,11111222 
TABS,ioos:station:wmo:42048:1,2011-04-04T21:30:00Z,27.9396,-96.8429,2.0,30.6936,11111222 
TABS,ioos:station:wmo:42048:1,2011-04-04T22:00:00Z,27.9396,-96.8429,2.0,30.692,11111222 
TABS,ioos:station:wmo:42048:1,2011-04-04T22:30:00Z,27.9396,-96.8429,2.0,30.6932,11111222 
TABS,ioos:station:wmo:42048:1,2011-04-04T23:00:00Z,27.9396,-96.8429,2.0,30.6914,11111222 
TABS,ioos:station:wmo:42048:1,2011-04-04T23:30:00Z,27.9396,-96.8429,2.0,30.6936,11111222 
TABS,ioos:station:wmo:42048:1,2011-04-05T00:00:00Z,27.9396,-96.8429,2.0,30.6959,11111222 
TABS,ioos:station:wmo:42048:1,2011-04-05T00:30:00Z,27.9396,-96.8429,2.0,30.6976,11111222 
TABS,ioos:station:wmo:42048:1,2011-04-05T01:00:00Z,27.9396,-96.8429,2.0,30.6989,11111222 
TABS,ioos:station:wmo:42048:1,2011-04-05T01:30:00Z,27.9396,-96.8429,2.0,30.6969,11111222 
TABS,ioos:station:wmo:42048:1,2011-04-05T02:00:00Z,27.9396,-96.8429,2.0,30.699,11111222 
TABS,ioos:station:wmo:42048:1,2011-04-05T02:30:00Z,27.9396,-96.8429,2.0,30.699,11111222 
TABS,ioos:station:wmo:42048:1,2011-04-05T03:00:00Z,27.9396,-96.8429,2.0,30.6986,11111222 
TABS,ioos:station:wmo:42048:1,2011-04-05T03:30:00Z,27.9396,-96.8429,2.0,30.7045,11111222 
TABS,ioos:station:wmo:42048:1,2011-04-05T04:00:00Z,27.9396,-96.8429,2.0,30.7081,11111222 
TABS,ioos:station:wmo:42048:1,2011-04-05T04:30:00Z,27.9396,-96.8429,2.0,30.7118,11111222 
TABS,ioos:station:wmo:42048:1,2011-04-05T05:00:00Z,27.9396,-96.8429,2.0,30.7207,11111222 
TABS,ioos:station:wmo:42048:1,2011-04-05T05:30:00Z,27.9396,-96.8429,2.0,30.743,11111222 
TABS,ioos:station:wmo:42048:1,2011-04-05T06:00:00Z,27.9396,-96.8429,2.0,30.7388,11111222 
TABS,ioos:station:wmo:42048:1,2011-04-05T06:30:00Z,27.9396,-96.8429,2.0,30.7426,11111222 
TABS,ioos:station:wmo:42048:1,2011-04-05T07:00:00Z,27.9396,-96.8429,2.0,30.7496,11111222 
TABS,ioos:station:wmo:42048:1,2011-04-05T07:30:00Z,27.9396,-96.8429,2.0,30.7547,11111222 
TABS,ioos:station:wmo:42048:1,2011-04-05T08:00:00Z,27.9396,-96.8429,2.0,30.7679,11111222 
TABS,ioos:station:wmo:42048:1,2011-04-05T08:30:00Z,27.9396,-96.8429,2.0,30.7662,11111222 
TABS,ioos:station:wmo:42048:1,2011-04-05T09:00:00Z,27.9396,-96.8429,2.0,30.7666,11111222 
TABS,ioos:station:wmo:42048:1,2011-04-05T09:30:00Z,27.9396,-96.8429,2.0,30.7728,11111222 
TABS,ioos:station:wmo:42048:1,2011-04-05T10:00:00Z,27.9396,-96.8429,2.0,30.7866,11111222 
TABS,ioos:station:wmo:42048:1,2011-04-05T10:30:00Z,27.9396,-96.8429,2.0,30.789,11111222 
TABS,ioos:station:wmo:42048:1,2011-04-05T11:00:00Z,27.9396,-96.8429,2.0,30.7983,11111222 
TABS,ioos:station:wmo:42048:1,2011-04-05T11:30:00Z,27.9396,-96.8429,2.0,30.7828,11111222 
TABS,ioos:station:wmo:42048:1,2011-04-05T12:00:00Z,27.9396,-96.8429,2.0,30.7728,11111222 
TABS,ioos:station:wmo:42048:1,2011-04-05T12:30:00Z,27.9396,-96.8429,2.0,30.7683,11111222 
TABS,ioos:station:wmo:42048:1,2011-04-05T13:00:00Z,27.9396,-96.8429,2.0,30.7588,11111222 
TABS,ioos:station:wmo:42048:1,2011-04-05T13:30:00Z,27.9396,-96.8429,2.0,30.7594,11111222 
TABS,ioos:station:wmo:42048:1,2011-04-05T14:00:00Z,27.9396,-96.8429,2.0,30.7541,11111222 
TABS,ioos:station:wmo:42048:1,2011-04-05T14:30:00Z,27.9396,-96.8429,2.0,30.7294,11111222 
TABS,ioos:station:wmo:42048:1,2011-04-05T15:00:00Z,27.9396,-96.8429,2.0,30.7122,11111222 
TABS,ioos:station:wmo:42048:1,2011-04-05T15:30:00Z,27.9396,-96.8429,2.0,30.7053,11111222 
TABS,ioos:station:wmo:42048:1,2011-04-05T16:00:00Z,27.9396,-96.8429,2.0,30.7023,11111222 
TABS,ioos:station:wmo:42048:1,2011-04-05T16:30:00Z,27.9396,-96.8429,2.0,30.6987,11111222 
TABS,ioos:station:wmo:42048:1,2011-04-05T17:00:00Z,27.9396,-96.8429,2.0,30.6922,11111222 
TABS,ioos:station:wmo:42048:1,2011-04-05T17:30:00Z,27.9396,-96.8429,2.0,30.7002,11111222 
TABS,ioos:station:wmo:42048:1,2011-04-05T18:00:00Z,27.9396,-96.8429,2.0,30.704,11111222 
TABS,ioos:station:wmo:42048:1,2011-04-05T18:30:00Z,27.9396,-96.8429,2.0,30.6898,11111222 
TABS,ioos:station:wmo:42048:1,2011-04-05T19:00:00Z,27.9396,-96.8429,2.0,30.6991,11111222 
TABS,ioos:station:wmo:42048:1,2011-04-05T19:30:00Z,27.9396,-96.8429,2.0,30.7088,11111222 
TABS,ioos:station:wmo:42048:1,2011-04-05T20:00:00Z,27.9396,-96.8429,2.0,30.7163,11111222 
TABS,ioos:station:wmo:42048:1,2011-04-05T20:30:00Z,27.9396,-96.8429,2.0,30.6552,11111222 
TABS,ioos:station:wmo:42048:1,2011-04-05T21:00:00Z,27.9396,-96.8429,2.0,30.6556,11111222 
TABS,ioos:station:wmo:42048:1,2011-04-05T21:30:00Z,27.9396,-96.8429,2.0,30.6436,11111222 
TABS,ioos:station:wmo:42048:1,2011-04-05T22:00:00Z,27.9396,-96.8429,2.0,30.6446,11111222 
TABS,ioos:station:wmo:42048:1,2011-04-05T22:30:00Z,27.9396,-96.8429,2.0,30.6425,11111222 
TABS,ioos:station:wmo:42048:1,2011-04-05T23:00:00Z,27.9396,-96.8429,2.0,30.6442,11111222 
TABS,ioos:station:wmo:42048:1,2011-04-05T23:30:00Z,27.9396,-96.8429,2.0,30.6285,11111222 
TABS,ioos:station:wmo:42048:1,2011-04-06T00:00:00Z,27.9396,-96.8429,2.0,30.6241,11111222 
TABS,ioos:station:wmo:42048:1,2011-04-06T00:30:00Z,27.9396,-96.8429,2.0,30.6135,11111222 
TABS,ioos:station:wmo:42048:1,2011-04-06T01:00:00Z,27.9396,-96.8429,2.0,30.6176,11111222 
TABS,ioos:station:wmo:42048:1,2011-04-06T01:30:00Z,27.9396,-96.8429,2.0,30.6076,11111222 
TABS,ioos:station:wmo:42048:1,2011-04-06T02:00:00Z,27.9396,-96.8429,2.0,30.5935,11111222 
TABS,ioos:station:wmo:42048:1,2011-04-06T02:30:00Z,27.9396,-96.8429,2.0,30.6053,11111222 
TABS,ioos:station:wmo:42048:1,2011-04-06T03:00:00Z,27.9396,-96.8429,2.0,30.6163,11111222 
TABS,ioos:station:wmo:42048:1,2011-04-06T03:30:00Z,27.9396,-96.8429,2.0,30.6205,11111222 
TABS,ioos:station:wmo:42048:1,2011-04-06T04:00:00Z,27.9396,-96.8429,2.0,30.6475,11111222 
TABS,ioos:station:wmo:42048:1,2011-04-06T04:30:00Z,27.9396,-96.8429,2.0,30.6405,11111222 
TABS,ioos:station:wmo:42048:1,2011-04-06T05:00:00Z,27.9396,-96.8429,2.0,30.6199,11111222 
TABS,ioos:station:wmo:42048:1,2011-04-06T05:30:00Z,27.9396,-96.8429,2.0,30.6266,11111222 
TABS,ioos:station:wmo:42048:1,2011-04-06T06:00:00Z,27.9396,-96.8429,2.0,30.653,11111222 
TABS,ioos:station:wmo:42048:1,2011-04-06T06:30:00Z,27.9396,-96.8429,2.0,30.663,11111222 
TABS,ioos:station:wmo:42048:1,2011-04-06T07:00:00Z,27.9396,-96.8429,2.0,30.6672,11111222 
TABS,ioos:station:wmo:42048:1,2011-04-06T07:30:00Z,27.9396,-96.8429,2.0,30.6593,11111222 
TABS,ioos:station:wmo:42048:1,2011-04-06T08:00:00Z,27.9396,-96.8429,2.0,30.6554,11111222 
TABS,ioos:station:wmo:42048:1,2011-04-06T08:30:00Z,27.9396,-96.8429,2.0,30.6515,11111222 
TABS,ioos:station:wmo:42048:1,2011-04-06T09:00:00Z,27.9396,-96.8429,2.0,30.6533,11111222 
TABS,ioos:station:wmo:42048:1,2011-04-06T09:30:00Z,27.9396,-96.8429,2.0,30.6609,11111222 
TABS,ioos:station:wmo:42048:1,2011-04-06T10:00:00Z,27.9396,-96.8429,2.0,30.6626,11111222 
TABS,ioos:station:wmo:42048:1,2011-04-06T10:30:00Z,27.9396,-96.8429,2.0,30.6694,11111222 
TABS,ioos:station:wmo:42048:1,2011-04-06T11:00:00Z,27.9396,-96.8429,2.0,30.6689,11111222 
TABS,ioos:station:wmo:42048:1,2011-04-06T11:30:00Z,27.9396,-96.8429,2.0,30.6623,11111222 
TABS,ioos:station:wmo:42048:1,2011-04-06T12:00:00Z,27.9396,-96.8429,2.0,30.6672,11111222 
TABS,ioos:station:wmo:42048:1,2011-04-06T12:30:00Z,27.9396,-96.8429,2.0,30.6683,11111222 
TABS,ioos:station:wmo:42048:1,2011-04-06T13:00:00Z,27.9396,-96.8429,2.0,30.6678,11111222 
TABS,ioos:station:wmo:42048:1,2011-04-06T13:30:00Z,27.9396,-96.8429,2.0,30.6697,11111222 
TABS,ioos:station:wmo:42048:1,2011-04-06T14:00:00Z,27.9396,-96.8429,2.0,30.6704,11111222 
TABS,ioos:station:wmo:42048:1,2011-04-06T14:30:00Z,27.9396,-96.8429,2.0,30.6699,11111222 
TABS,ioos:station:wmo:42048:1,2011-04-06T15:00:00Z,27.9396,-96.8429,2.0,30.6712,11111222 